TimeMST,TemperatureF,Dew PointF,Humidity,Sea Level PressureIn,VisibilityMPH,Wind Direction,Wind SpeedMPH,Gust SpeedMPH,PrecipitationIn,Events,Conditions,WindDirDegrees,DateUTC
12:01 AM,35.6,28.4,75,29.67,5.0,ESE,8.1,-,N/A,Rain,Light Rain,120,2013-12-19 07:01:00
12:16 AM,32.0,28.4,87,29.67,9.0,NW,10.4,-,N/A,Rain,Light Rain,320,2013-12-19 07:16:00
12:21 AM,32.0,28.4,87,29.67,1.5,WNW,16.1,-,N/A,Rain,Light Rain,300,2013-12-19 07:21:00
12:22 AM,32.0,26.6,80,29.67,0.5,NW,15.0,-,N/A,Rain,Light Freezing Rain,310,2013-12-19 07:22:00
12:27 AM,30.2,26.6,86,29.67,0.5,NNW,12.7,-,N/A,Fog-Rain,Light Freezing Rain,330,2013-12-19 07:27:00
12:29 AM,30.2,26.6,86,29.67,0.2,NNW,10.4,-,N/A,Fog-Rain,Light Freezing Rain,330,2013-12-19 07:29:00
12:35 AM,28.4,24.8,86,29.66,0.2,North,9.2,-,N/A,Fog-Snow,Light Freezing Fog,360,2013-12-19 07:35:00
12:40 AM,28.4,24.8,86,29.67,0.2,NNE,6.9,-,N/A,Fog-Snow,Light Freezing Fog,20,2013-12-19 07:40:00
12:50 AM,28.4,24.8,86,29.66,0.2,NE,6.9,-,N/A,Fog-Rain,Light Freezing Rain,40,2013-12-19 07:50:00
12:58 AM,28.2,25.2,88,29.68,0.5,NE,4.6,-,0.03,Fog-Rain,Light Freezing Rain,40,2013-12-19 07:58:00
1:04 AM,28.4,24.8,86,29.66,0.5,ESE,5.8,-,N/A,Fog-Rain,Light Freezing Rain,120,2013-12-19 08:04:00
1:08 AM,28.4,26.6,93,29.66,0.5,ESE,6.9,-,N/A,Fog-Snow,Light Freezing Fog,120,2013-12-19 08:08:00
1:13 AM,30.2,26.6,86,29.66,0.8,South,9.2,-,N/A,Rain,Light Freezing Rain,170,2013-12-19 08:13:00
1:18 AM,32.0,26.6,80,29.65,1.5,South,9.2,-,N/A,Rain,Light Freezing Rain,180,2013-12-19 08:18:00
1:30 AM,32.0,26.6,80,29.66,1.5,South,5.8,-,N/A,Rain,Light Freezing Rain,190,2013-12-19 08:30:00
1:39 AM,32.0,26.6,80,29.66,2.0,SSE,4.6,-,N/A,Rain,Light Freezing Rain,160,2013-12-19 08:39:00
1:44 AM,32.0,26.6,80,29.65,2.0,SSE,4.6,-,N/A,Rain,Light Freezing Rain,150,2013-12-19 08:44:00
1:50 AM,32.0,26.6,80,29.66,2.0,West,4.6,-,N/A,Rain,Light Freezing Rain,270,2013-12-19 08:50:00
1:55 AM,30.2,26.6,86,29.65,1.8,WNW,4.6,-,N/A,Rain,Light Freezing Rain,290,2013-12-19 08:55:00
1:58 AM,30.2,27.3,89,29.65,1.8,WNW,4.6,-,0.16,Rain,Light Freezing Rain,290,2013-12-19 08:58:00
2:08 AM,30.2,26.6,86,29.64,1.2,WNW,1.2,-,N/A,Rain,Light Freezing Rain,300,2013-12-19 09:08:00
2:12 AM,32.0,26.6,80,29.64,0.8,NW,1.2,-,N/A,Rain,Light Freezing Rain,320,2013-12-19 09:12:00
2:13 AM,32.0,26.6,80,29.64,0.8,Calm,Calm,-,N/A,Rain,Light Freezing Rain,0,2013-12-19 09:13:00
2:18 AM,32.0,26.6,80,29.63,0.5,Calm,Calm,-,N/A,Fog-Rain,Light Freezing Rain,0,2013-12-19 09:18:00
2:28 AM,32.0,26.6,80,29.63,0.5,WNW,2.3,-,N/A,Rain,Light Freezing Rain,290,2013-12-19 09:28:00
2:29 AM,32.0,26.6,80,29.63,0.5,WNW,2.3,-,N/A,Rain,Light Freezing Rain,290,2013-12-19 09:29:00
2:34 AM,32.0,26.6,80,29.64,0.2,WNW,2.3,-,N/A,Rain,Light Freezing Rain,290,2013-12-19 09:34:00
2:38 AM,32.0,26.6,80,29.64,0.2,WNW,2.3,-,N/A,Rain,Light Freezing Rain,290,2013-12-19 09:38:00
2:46 AM,32.0,26.6,80,29.64,0.2,WNW,3.5,-,N/A,Rain,Light Freezing Rain,290,2013-12-19 09:46:00
2:47 AM,32.0,26.6,80,29.64,0.2,WNW,3.5,-,N/A,Rain,Light Freezing Rain,290,2013-12-19 09:47:00
2:51 AM,32.0,26.6,80,29.64,0.2,WNW,3.5,-,N/A,Snow,Heavy Snow,290,2013-12-19 09:51:00
2:58 AM,31.3,26.8,83,29.64,0.2,WNW,3.5,-,0.13,Snow,Heavy Snow,290,2013-12-19 09:58:00
3:23 AM,32.0,28.4,87,29.64,0.5,Calm,Calm,-,N/A,Fog-Snow,Light Freezing Fog,0,2013-12-19 10:23:00
3:38 AM,32.0,28.4,87,29.64,0.8,Calm,Calm,-,N/A,Snow,Light Snow,0,2013-12-19 10:38:00
3:43 AM,32.0,28.4,87,29.63,0.8,Calm,Calm,-,N/A,Snow,Light Snow,0,2013-12-19 10:43:00
3:48 AM,32.0,28.4,87,29.63,1.0,Calm,Calm,-,N/A,Snow,Light Snow,0,2013-12-19 10:48:00
3:53 AM,32.0,28.4,87,29.64,1.2,Calm,Calm,-,N/A,Snow,Light Snow,0,2013-12-19 10:53:00
3:58 AM,32.4,28.6,86,29.63,1.2,Calm,Calm,-,0.15,Snow,Light Snow,0,2013-12-19 10:58:00
4:03 AM,32.0,28.4,87,29.63,1.2,Calm,Calm,-,N/A,Snow,Light Snow,0,2013-12-19 11:03:00
4:08 AM,32.0,28.4,87,29.63,1.5,Calm,Calm,-,N/A,Snow,Light Snow,0,2013-12-19 11:08:00
4:18 AM,32.0,28.4,87,29.63,2.0,Calm,Calm,-,N/A,Snow,Light Snow,0,2013-12-19 11:18:00
4:33 AM,32.0,30.2,93,29.61,3.0,Calm,Calm,-,N/A,Snow,Light Snow,0,2013-12-19 11:33:00
4:38 AM,32.0,30.2,93,29.61,3.0,Calm,Calm,-,N/A,Snow,Light Snow,0,2013-12-19 11:38:00
4:43 AM,32.0,30.2,93,29.61,2.5,Calm,Calm,-,N/A,Snow,Light Snow,0,2013-12-19 11:43:00
4:58 AM,32.4,30.0,91,29.63,2.5,Calm,Calm,-,0.16,Snow,Light Snow,0,2013-12-19 11:58:00
5:03 AM,32.0,32.0,100,29.60,3.0,Calm,Calm,-,N/A,Snow,Light Snow,0,2013-12-19 12:03:00
5:08 AM,32.0,32.0,100,29.59,5.0,Calm,Calm,-,N/A,Snow,Light Snow,0,2013-12-19 12:08:00
5:21 AM,32.0,32.0,100,29.59,6.0,Calm,Calm,-,N/A,Snow,Light Snow,0,2013-12-19 12:21:00
5:22 AM,32.0,32.0,100,29.59,6.0,Calm,Calm,-,N/A,,Mostly Cloudy,0,2013-12-19 12:22:00
5:27 AM,32.0,32.0,100,29.59,7.0,Calm,Calm,-,N/A,,Mostly Cloudy,0,2013-12-19 12:27:00
5:57 AM,32.0,32.0,100,29.59,5.0,Calm,Calm,-,N/A,Snow,Light Snow,0,2013-12-19 12:57:00
5:58 AM,32.9,32.4,98,29.62,5.0,Calm,Calm,-,0.12,Snow,Light Snow,0,2013-12-19 12:58:00
6:03 AM,32.0,32.0,100,29.59,4.0,Calm,Calm,-,N/A,Snow,Light Snow,0,2013-12-19 13:03:00
6:08 AM,32.0,32.0,100,29.59,2.5,Calm,Calm,-,N/A,Snow,Light Snow,0,2013-12-19 13:08:00
6:13 AM,32.0,32.0,100,29.60,1.2,Calm,Calm,-,N/A,Snow,Light Snow,0,2013-12-19 13:13:00
6:18 AM,32.0,32.0,100,29.60,0.8,Calm,Calm,-,N/A,Snow,Light Snow,0,2013-12-19 13:18:00
6:23 AM,32.0,32.0,100,29.60,0.8,Calm,Calm,-,N/A,Snow,Light Snow,0,2013-12-19 13:23:00
6:33 AM,32.0,32.0,100,29.60,0.8,Calm,Calm,-,N/A,Snow,Light Snow,0,2013-12-19 13:33:00
6:34 AM,32.0,32.0,100,29.60,0.8,Calm,Calm,-,N/A,Snow,Light Snow,0,2013-12-19 13:34:00
6:39 AM,32.0,32.0,100,29.60,0.8,Calm,Calm,-,N/A,Snow,Light Snow,0,2013-12-19 13:39:00
6:54 AM,32.0,32.0,100,29.60,0.5,Calm,Calm,-,N/A,Fog-Snow,Light Snow,0,2013-12-19 13:54:00
6:58 AM,32.0,31.6,99,29.65,0.5,Calm,Calm,-,0.11,Fog-Snow,Light Freezing Fog,0,2013-12-19 13:58:00
7:58 AM,31.1,30.9,99,29.64,0.2,Calm,Calm,-,0.04,Fog-Snow,Snow,0,2013-12-19 14:58:00
8:58 AM,31.1,30.9,99,29.67,0.2,Calm,Calm,-,0.07,Fog-Snow,Snow,0,2013-12-19 15:58:00
9:21 AM,32.0,32.0,100,29.65,0.5,Calm,Calm,-,N/A,Snow,Light Snow,0,2013-12-19 16:21:00
9:28 AM,32.0,32.0,100,29.66,0.8,Calm,Calm,-,N/A,Snow,Light Snow,0,2013-12-19 16:28:00
9:58 AM,32.0,32.0,100,29.69,0.5,Calm,Calm,-,0.03,Fog-Snow,Light Snow,0,2013-12-19 16:58:00
10:11 AM,32.0,32.0,100,29.68,0.2,Calm,Calm,-,N/A,Fog-Snow,Snow,0,2013-12-19 17:11:00
10:58 AM,30.7,30.6,99,29.72,0.2,Calm,Calm,-,0.04,Fog-Snow,Snow,0,2013-12-19 17:58:00
11:47 AM,32.0,32.0,100,29.71,0.2,NNW,8.1,-,N/A,Fog-Snow,Snow,330,2013-12-19 18:47:00
11:58 AM,31.1,30.9,99,29.71,0.2,NNW,8.1,-,0.05,Fog-Snow,Light Snow,330,2013-12-19 18:58:00
12:28 PM,32.0,32.0,100,29.71,0.5,NNW,11.5,-,N/A,Fog-Snow,Light Snow,330,2013-12-19 19:28:00
12:58 PM,30.4,30.2,99,29.74,1.0,NNW,6.9,-,0.01,Snow,Light Snow,330,2013-12-19 19:58:00
1:14 PM,30.2,30.2,100,29.71,1.5,NW,5.8,-,N/A,Snow,Light Snow,320,2013-12-19 20:14:00
1:58 PM,30.0,29.8,99,29.75,1.5,WNW,5.8,-,0.00,Snow,Light Snow,300,2013-12-19 20:58:00
2:45 PM,30.2,30.2,100,29.74,1.5,WNW,3.5,-,N/A,Snow,Light Snow,290,2013-12-19 21:45:00
2:58 PM,29.7,29.5,99,29.76,1.8,WNW,4.6,-,0.00,Snow,Light Snow,300,2013-12-19 21:58:00
3:40 PM,30.2,30.2,100,29.76,2.0,West,4.6,-,N/A,Snow,Light Snow,260,2013-12-19 22:40:00
3:58 PM,29.7,29.5,99,29.79,1.8,WNW,4.6,-,0.00,Snow,Light Snow,300,2013-12-19 22:58:00
4:04 PM,30.2,30.2,100,29.77,1.0,NW,4.6,-,N/A,Snow,Light Snow,320,2013-12-19 23:04:00
4:58 PM,29.8,29.5,99,29.81,1.0,Calm,Calm,-,0.01,Snow,Light Snow,0,2013-12-19 23:58:00
5:29 PM,28.4,28.4,100,29.78,1.5,SSE,9.2,-,N/A,Snow,Light Snow,160,2013-12-20 00:29:00
5:50 PM,28.4,28.4,100,29.77,2.0,South,11.5,-,N/A,,Overcast,170,2013-12-20 00:50:00
5:58 PM,28.8,28.6,99,29.81,3.0,South,13.8,-,0.00,,Overcast,180,2013-12-20 00:58:00
6:45 PM,28.4,26.6,93,29.80,8.0,SSE,11.5,-,N/A,,Overcast,160,2013-12-20 01:45:00
6:58 PM,27.7,27.5,99,29.83,7.0,SSE,10.4,-,N/A,,Overcast,160,2013-12-20 01:58:00
7:13 PM,28.4,26.6,93,29.81,6.0,South,8.1,-,N/A,,Overcast,180,2013-12-20 02:13:00
7:28 PM,28.4,28.4,100,29.83,10.0,SSW,5.8,-,N/A,,Overcast,200,2013-12-20 02:28:00
7:32 PM,28.4,28.4,100,29.82,10.0,South,6.9,-,N/A,Snow,Light Snow,170,2013-12-20 02:32:00
7:42 PM,28.4,28.4,100,29.83,8.0,SSW,5.8,-,N/A,Snow,Light Snow,200,2013-12-20 02:42:00
7:47 PM,28.4,26.6,93,29.83,1.5,West,2.3,-,N/A,Snow,Light Snow,280,2013-12-20 02:47:00
7:58 PM,26.8,26.6,99,29.88,1.5,SSE,1.2,-,0.00,Snow,Light Snow,150,2013-12-20 02:58:00
8:22 PM,28.4,28.4,100,29.84,1.0,South,8.1,-,N/A,Snow,Light Snow,170,2013-12-20 03:22:00
8:51 PM,28.4,28.4,100,29.84,1.0,South,5.8,-,N/A,Snow,Light Snow,180,2013-12-20 03:51:00
8:58 PM,27.9,27.7,99,29.88,1.0,South,5.8,-,0.00,Snow,Light Snow,180,2013-12-20 03:58:00
9:04 PM,28.4,28.4,100,29.84,6.0,South,6.9,-,N/A,Snow,Light Snow,170,2013-12-20 04:04:00
9:14 PM,28.4,26.6,93,29.85,6.0,SE,8.1,-,N/A,Snow,Light Snow,140,2013-12-20 04:14:00
9:39 PM,26.6,26.6,100,29.85,7.0,WSW,6.9,-,N/A,Snow,Light Snow,250,2013-12-20 04:39:00
9:58 PM,27.3,27.0,99,29.89,6.0,South,6.9,-,0.00,Snow,Light Snow,190,2013-12-20 04:58:00
10:20 PM,26.6,26.6,100,29.86,6.0,SSE,4.6,-,N/A,,Overcast,150,2013-12-20 05:20:00
10:58 PM,25.5,25.3,99,29.92,10.0,South,6.9,-,0.00,,Overcast,170,2013-12-20 05:58:00
11:58 PM,25.7,25.5,99,29.91,10.0,South,10.4,-,N/A,,Overcast,190,2013-12-20 06:58:00